When you browse on this site, cookies collect data to enhance your experience and personalize the content and advertising you see.
Visit our Privacy Policy to learn more. By continuing to use the site, you agree to this use of cookies and data.
  • In Hungary
  • List of Countries
  • For 7 days
  • Water Temperature
  • Weather Map
  • News
  • Weather Widgets
  • user-avatar
    Login

    Hourly Weather Zabartowo

    Today, 13 November, Wednesday

    Time Temperature Precipitation Wind Pressure Humidity
    00:00 +6°C° 0.7 mm 1 mps 745 mmHg 95%
    01:00 +6°C° 0.7 mm 1 mps 745 mmHg 96%
    02:00 +6°C° 0.3 mm 1 mps 744 mmHg 96%
    03:00 +6°C° 0.3 mm 1 mps 744 mmHg 96%
    04:00 +5°C° 0.3 mm 2 mps 743 mmHg 96%
    05:00 +6°C° 0.1 mm 2 mps 743 mmHg 97%
    06:00 +6°C° 0.1 mm 2 mps 743 mmHg 97%
    07:00 +6°C° 0.1 mm 2 mps 742 mmHg 98%
    08:00 +6°C° 0.2 mm 2 mps 742 mmHg 98%
    09:00 +8°C° 0.2 mm 1 mps 742 mmHg 98%
    10:00 +8°C° 0.2 mm 1 mps 742 mmHg 97%
    11:00 +8°C° 0.6 mm 1 mps 741 mmHg 97%
    12:00 +8°C° 0.6 mm 1 mps 741 mmHg 97%
    13:00 +8°C° 0.6 mm 1 mps 741 mmHg 97%
    14:00 +8°C° 1.4 mm 1 mps 741 mmHg 97%
    15:00 +7°C° 1.4 mm 2 mps 741 mmHg 97%
    16:00 +7°C° 1.4 mm 2 mps 741 mmHg 97%
    17:00 +6°C° 0.1 mm 2 mps 741 mmHg 96%
    18:00 +6°C° 0.1 mm 2 mps 741 mmHg 96%
    19:00 +6°C° 0.1 mm 2 mps 741 mmHg 96%
    20:00 +6°C° 0.2 mm 2 mps 741 mmHg 95%
    21:00 +6°C° 0.2 mm 2 mps 741 mmHg 95%
    22:00 +6°C° 0.2 mm 2 mps 741 mmHg 95%
    23:00 +5°C° 1 mm 3 mps 741 mmHg 94%

    Tomorrow, 14 November, Thursday

    Time Temperature Precipitation Wind Pressure Humidity
    00:00 +5°C° 1 mm 3 mps 741 mmHg 94%
    01:00 +5°C° 1 mm 4 mps 741 mmHg 94%
    02:00 +5°C° 0.7 mm 4 mps 742 mmHg 93%
    03:00 +4°C° 0.7 mm 4 mps 742 mmHg 93%
    04:00 +4°C° 0.7 mm 4 mps 742 mmHg 92%
    05:00 +4°C° 0.3 mm 3 mps 743 mmHg 92%
    06:00 +4°C° 0.3 mm 3 mps 744 mmHg 92%
    07:00 +4°C° 0.3 mm 3 mps 745 mmHg 92%
    08:00 +4°C° 0 mm 3 mps 745 mmHg 90%
    09:00 +4°C° 0 mm 3 mps 746 mmHg 89%
    10:00 +4°C° 0 mm 3 mps 747 mmHg 88%
    11:00 +5°C° 0 mm 2 mps 747 mmHg 84%
    12:00 +6°C° 0 mm 2 mps 748 mmHg 80%
    13:00 +6°C° 0 mm 2 mps 748 mmHg 76%
    14:00 +7°C° 0 mm 1 mps 749 mmHg 76%
    15:00 +7°C° 0 mm 1 mps 749 mmHg 77%
    16:00 +6°C° 0 mm 1 mps 749 mmHg 77%
    17:00 +6°C° 0 mm 1 mps 749 mmHg 78%
    18:00 +5°C° 0 mm 2 mps 750 mmHg 79%
    19:00 +5°C° 0 mm 2 mps 750 mmHg 79%
    20:00 +4°C° 0 mm 2 mps 750 mmHg 82%
    21:00 +4°C° 0 mm 2 mps 750 mmHg 84%
    22:00 +3°C° 0 mm 2 mps 750 mmHg 87%
    23:00 +2°C° 0 mm 3 mps 750 mmHg 87%

    Day after tomorrow, 15 November, Friday

    Time Temperature Precipitation Wind Pressure Humidity
    00:00 +3°C° 0 mm 4 mps 750 mmHg 87%
    01:00 +3°C° 0 mm 4 mps 750 mmHg 87%
    02:00 +2°C° 0 mm 5 mps 750 mmHg 88%
    03:00 +2°C° 0 mm 5 mps 749 mmHg 88%
    04:00 +2°C° 0 mm 6 mps 749 mmHg 89%
    05:00 +2°C° 0 mm 6 mps 749 mmHg 90%
    06:00 +2°C° 0 mm 6 mps 749 mmHg 92%
    07:00 +3°C° 0 mm 6 mps 749 mmHg 94%
    08:00 +7°C° 0 mm 5 mps 748 mmHg 95%
    09:00 +8°C° 0 mm 6 mps 748 mmHg 93%
    10:00 +9°C° 0 mm 6 mps 748 mmHg 91%
    11:00 +10°C° 0 mm 6 mps 748 mmHg 87%
    12:00 +10°C° 0 mm 6 mps 748 mmHg 82%
    13:00 +11°C° 0 mm 6 mps 747 mmHg 78%
    14:00 +11°C° 0 mm 6 mps 747 mmHg 81%
    15:00 +11°C° 0 mm 6 mps 747 mmHg 83%
    16:00 +10°C° 0 mm 5 mps 747 mmHg 85%
    17:00 +10°C° 0 mm 5 mps 747 mmHg 86%
    18:00 +10°C° 0 mm 5 mps 747 mmHg 87%
    19:00 +10°C° 0 mm 5 mps 747 mmHg 87%
    20:00 +10°C° 0 mm 5 mps 747 mmHg 88%
    21:00 +9°C° 0 mm 5 mps 747 mmHg 89%
    22:00 +9°C° 0 mm 5 mps 747 mmHg 89%
    23:00 +9°C° 0 mm 5 mps 747 mmHg 90%

    16 November, Saturday

    Time Temperature Precipitation Wind Pressure Humidity
    00:00 +9°C° 0 mm 5 mps 747 mmHg 91%
    01:00 +10°C° 0 mm 4 mps 747 mmHg 91%
    02:00 +9°C° 0 mm 5 mps 747 mmHg 90%
    03:00 +9°C° 0 mm 5 mps 747 mmHg 88%
    04:00 +9°C° 0 mm 5 mps 747 mmHg 87%
    05:00 +9°C° 0 mm 5 mps 747 mmHg 86%
    06:00 +9°C° 0 mm 5 mps 747 mmHg 85%
    07:00 +9°C° 0 mm 6 mps 747 mmHg 84%
    08:00 +10°C° 0 mm 6 mps 747 mmHg 80%
    09:00 +11°C° 0 mm 6 mps 748 mmHg 76%
    10:00 +11°C° 0 mm 7 mps 748 mmHg 72%
    11:00 +11°C° 0 mm 6 mps 749 mmHg 72%
    12:00 +11°C° 0 mm 6 mps 749 mmHg 71%
    13:00 +12°C° 0 mm 5 mps 750 mmHg 70%
    14:00 +10°C° 0 mm 4 mps 750 mmHg 73%
    15:00 +9°C° 0 mm 3 mps 751 mmHg 76%
    16:00 +8°C° 0 mm 2 mps 751 mmHg 78%
    17:00 +8°C° 0 mm 2 mps 752 mmHg 81%
    18:00 +8°C° 0 mm 1 mps 752 mmHg 83%
    19:00 +8°C° 0 mm 1 mps 753 mmHg 85%
    20:00 +7°C° 0 mm 1 mps 753 mmHg 85%
    21:00 +7°C° 0 mm 1 mps 754 mmHg 86%
    22:00 +7°C° 0 mm 1 mps 754 mmHg 86%
    23:00 +7°C° 0 mm 1 mps 754 mmHg 86%

    17 November, Sunday

    Time Temperature Precipitation Wind Pressure Humidity
    00:00 +6°C° 0 mm 2 mps 754 mmHg 86%
    01:00 +6°C° 0 mm 2 mps 754 mmHg 87%
    02:00 +5°C° 0 mm 3 mps 753 mmHg 87%
    03:00 +7°C° 0 mm 3 mps 753 mmHg 87%
    04:00 +6°C° 0 mm 4 mps 753 mmHg 87%
    05:00 +6°C° 0 mm 4 mps 752 mmHg 89%
    06:00 +7°C° 0 mm 4 mps 752 mmHg 90%
    07:00 +7°C° 0 mm 4 mps 752 mmHg 92%
    08:00 +8°C° 0 mm 4 mps 751 mmHg 89%
    09:00 +8°C° 0 mm 5 mps 751 mmHg 86%
    10:00 +9°C° 0 mm 5 mps 751 mmHg 84%
    11:00 +9°C° 0 mm 5 mps 750 mmHg 81%
    12:00 +10°C° 0 mm 5 mps 750 mmHg 79%
    13:00 +10°C° 0 mm 5 mps 749 mmHg 77%
    14:00 +9°C° 0 mm 5 mps 749 mmHg 80%
    15:00 +9°C° 0 mm 5 mps 749 mmHg 83%
    16:00 +8°C° 0 mm 4 mps 749 mmHg 86%
    17:00 +8°C° 0 mm 4 mps 749 mmHg 87%
    18:00 +7°C° 0 mm 4 mps 749 mmHg 87%
    19:00 +7°C° 0 mm 4 mps 749 mmHg 88%
    20:00 +7°C° 0 mm 4 mps 749 mmHg 89%
    21:00 +7°C° 0 mm 4 mps 749 mmHg 90%
    22:00 +6°C° 0 mm 4 mps 749 mmHg 91%
    23:00 +6°C° 0 mm 4 mps 749 mmHg 91%

    18 November, Monday

    Time Temperature Precipitation Wind Pressure Humidity
    00:00 +6°C° 0 mm 4 mps 748 mmHg 91%
    01:00 +5°C° 0 mm 4 mps 748 mmHg 92%
    02:00 +5°C° 0 mm 4 mps 748 mmHg 92%
    03:00 +5°C° 0 mm 4 mps 748 mmHg 92%
    04:00 +5°C° 0 mm 4 mps 748 mmHg 92%
    05:00 +5°C° 0 mm 4 mps 748 mmHg 91%
    06:00 +4°C° 0 mm 4 mps 748 mmHg 91%
    07:00 +4°C° 0 mm 4 mps 748 mmHg 91%
    08:00 +5°C° 0 mm 4 mps 748 mmHg 88%
    09:00 +6°C° 0 mm 4 mps 748 mmHg 86%
    10:00 +6°C° 0 mm 5 mps 748 mmHg 83%
    11:00 +7°C° 0 mm 5 mps 748 mmHg 80%
    12:00 +8°C° 0 mm 5 mps 748 mmHg 77%
    13:00 +9°C° 0 mm 5 mps 748 mmHg 73%
    14:00 +10°C° 0 mm 4 mps 748 mmHg 76%
    15:00 +8°C° 0 mm 4 mps 748 mmHg 79%
    16:00 +9°C° 0 mm 3 mps 748 mmHg 82%
    17:00 +8°C° 0 mm 4 mps 748 mmHg 83%
    18:00 +8°C° 0 mm 4 mps 748 mmHg 83%
    19:00 +8°C° 0 mm 4 mps 749 mmHg 84%
    20:00 +8°C° 0 mm 4 mps 749 mmHg 83%
    21:00 +8°C° 0 mm 4 mps 749 mmHg 83%
    22:00 +8°C° 0 mm 4 mps 750 mmHg 83%
    23:00 +8°C° 0 mm 4 mps 750 mmHg 84%
    Show more